JCSAT-5A

Last updated on Jan. 26, 2020, 4:40 a.m. UTC

1 29045U 06010A   20025.52202244 -.00000336  00000-0  00000+0 0  9999
2 29045   0.0198  98.6400 0001114 253.3912  92.2497  1.00268724 50535
UTC
Height (km)
Latitude
Longitude
Inclination
Orbital Period
UTC large
Height (km)
Speed (km/s)
/
Latitude / Longitude
Inclination (degrees)
Orbital Period (minutes)
Azimuth
Elevation
Range (km)
Doppler Factor
iOS Compass Heading
iOS Angle

Next 30 passes for location: Hong Kong

Rise time Rise Azimuth (degrees) Set time Set Azimuth (degrees) Duration Max altitude (degrees)

No matching passes for this satellites